When you browse on this site, cookies collect data to enhance your experience and personalize the content and advertising you see.
Visit our Privacy Policy to learn more. By continuing to use the site, you agree to this use of cookies and data.
EN

Hourly Weather Serowe

Today, 28 September, Monday

Time Temperature Precipitation Wind Pressure Humidity
00:00 +20°C° 0 mm 2 mps 664 mmHg 48%
01:00 +19°C° 0 mm 3 mps 664 mmHg 56%
02:00 +18°C° 0 mm 3 mps 664 mmHg 63%
03:00 +17°C° 0 mm 4 mps 664 mmHg 71%
04:00 +15°C° 0 mm 4 mps 664 mmHg 78%
05:00 +15°C° 0 mm 4 mps 664 mmHg 86%
06:00 +17°C° 0 mm 4 mps 665 mmHg 82%
07:00 +18°C° 0 mm 4 mps 666 mmHg 77%
08:00 +19°C° 0 mm 4 mps 667 mmHg 71%
09:00 +22°C° 0 mm 5 mps 667 mmHg 58%
10:00 +26°C° 0 mm 5 mps 667 mmHg 44%
11:00 +29°C° 0 mm 5 mps 668 mmHg 31%
12:00 +30°C° 0 mm 5 mps 667 mmHg 28%
13:00 +33°C° 0 mm 4 mps 666 mmHg 25%
14:00 +34°C° 0 mm 4 mps 666 mmHg 21%
15:00 +34°C° 0 mm 4 mps 665 mmHg 21%
16:00 +34°C° 0 mm 4 mps 665 mmHg 22%
17:00 +33°C° 0 mm 4 mps 665 mmHg 22%
18:00 +30°C° 0 mm 4 mps 665 mmHg 29%
19:00 +28°C° 0 mm 5 mps 665 mmHg 36%
20:00 +25°C° 0 mm 5 mps 666 mmHg 43%
21:00 +23°C° 0 mm 5 mps 666 mmHg 52%
22:00 +22°C° 0 mm 5 mps 666 mmHg 60%
23:00 +20°C° 0 mm 4 mps 666 mmHg 69%

Tomorrow, 29 September, Tuesday

Time Temperature Precipitation Wind Pressure Humidity
00:00 +19°C° 0 mm 4 mps 666 mmHg 75%
01:00 +18°C° 0 mm 4 mps 666 mmHg 81%
02:00 +17°C° 0 mm 4 mps 666 mmHg 87%
03:00 +18°C° 0 mm 4 mps 666 mmHg 86%
04:00 +18°C° 0 mm 4 mps 666 mmHg 85%
05:00 +17°C° 0 mm 5 mps 666 mmHg 84%
06:00 +17°C° 0 mm 5 mps 667 mmHg 82%
07:00 +19°C° 0 mm 5 mps 667 mmHg 80%
08:00 +19°C° 0 mm 5 mps 668 mmHg 77%
09:00 +21°C° 0 mm 5 mps 668 mmHg 69%
10:00 +23°C° 0 mm 5 mps 668 mmHg 61%
11:00 +26°C° 0 mm 5 mps 668 mmHg 53%
12:00 +28°C° 0 mm 5 mps 667 mmHg 47%
13:00 +29°C° 0 mm 4 mps 667 mmHg 41%
14:00 +32°C° 0 mm 4 mps 666 mmHg 35%
15:00 +28°C° 1.2 mm 4 mps 666 mmHg 46%
16:00 +26°C° 1.2 mm 4 mps 665 mmHg 58%
17:00 +22°C° 1.2 mm 4 mps 664 mmHg 69%
18:00 +22°C° 0.3 mm 5 mps 665 mmHg 69%
19:00 +22°C° 0.3 mm 5 mps 665 mmHg 68%
20:00 +22°C° 0.3 mm 5 mps 666 mmHg 68%
21:00 +21°C° 0 mm 5 mps 666 mmHg 72%
22:00 +20°C° 0 mm 4 mps 666 mmHg 75%
23:00 +19°C° 0 mm 4 mps 666 mmHg 79%

Day after tomorrow, 30 September, Wednesday

Time Temperature Precipitation Wind Pressure Humidity
00:00 +19°C° 0 mm 4 mps 666 mmHg 81%
01:00 +18°C° 0 mm 4 mps 666 mmHg 83%
02:00 +18°C° 0 mm 4 mps 665 mmHg 86%
03:00 +17°C° 0 mm 5 mps 666 mmHg 85%
04:00 +17°C° 0 mm 5 mps 666 mmHg 85%
05:00 +17°C° 0 mm 5 mps 666 mmHg 85%
06:00 +17°C° 0 mm 6 mps 666 mmHg 83%
07:00 +19°C° 0 mm 6 mps 666 mmHg 81%
08:00 +18°C° 0 mm 7 mps 667 mmHg 79%
09:00 +20°C° 0 mm 7 mps 666 mmHg 73%
10:00 +22°C° 0 mm 7 mps 666 mmHg 67%
11:00 +23°C° 0 mm 7 mps 666 mmHg 61%
12:00 +26°C° 0 mm 7 mps 665 mmHg 55%
13:00 +28°C° 0 mm 7 mps 665 mmHg 48%
14:00 +29°C° 0 mm 7 mps 664 mmHg 42%
15:00 +30°C° 0 mm 6 mps 664 mmHg 41%
16:00 +30°C° 0 mm 6 mps 664 mmHg 41%
17:00 +30°C° 0 mm 5 mps 664 mmHg 40%
18:00 +28°C° 0.7 mm 5 mps 664 mmHg 51%
19:00 +25°C° 0.7 mm 5 mps 664 mmHg 62%
20:00 +22°C° 0.7 mm 5 mps 664 mmHg 72%
21:00 +22°C° 0.1 mm 5 mps 664 mmHg 71%
22:00 +22°C° 0.1 mm 5 mps 664 mmHg 69%
23:00 +22°C° 0.1 mm 6 mps 664 mmHg 67%

1 October, Thursday

Time Temperature Precipitation Wind Pressure Humidity
00:00 +21°C° 0 mm 5 mps 663 mmHg 71%
01:00 +20°C° 0 mm 5 mps 662 mmHg 75%
02:00 +19°C° 0 mm 4 mps 662 mmHg 78%
03:00 +19°C° 0 mm 5 mps 662 mmHg 80%
04:00 +19°C° 0 mm 6 mps 661 mmHg 81%
05:00 +17°C° 0 mm 6 mps 661 mmHg 83%
06:00 +21°C° 0 mm 7 mps 662 mmHg 70%
07:00 +23°C° 0 mm 7 mps 663 mmHg 57%
08:00 +26°C° 0 mm 8 mps 664 mmHg 44%
09:00 +28°C° 0 mm 9 mps 664 mmHg 38%
10:00 +31°C° 0 mm 9 mps 664 mmHg 32%
11:00 +33°C° 0 mm 10 mps 664 mmHg 26%
12:00 +34°C° 0 mm 10 mps 664 mmHg 24%
13:00 +35°C° 0 mm 9 mps 663 mmHg 22%
14:00 +35°C° 0 mm 9 mps 662 mmHg 20%
15:00 +35°C° 0 mm 8 mps 662 mmHg 21%
16:00 +34°C° 0 mm 7 mps 662 mmHg 22%
17:00 +34°C° 0 mm 6 mps 662 mmHg 23%
18:00 +32°C° 0 mm 5 mps 663 mmHg 21%
19:00 +29°C° 0 mm 5 mps 663 mmHg 18%
20:00 +28°C° 0 mm 4 mps 664 mmHg 16%
21:00 +26°C° 0 mm 5 mps 664 mmHg 15%
22:00 +23°C° 0 mm 5 mps 664 mmHg 14%
23:00 +22°C° 0 mm 6 mps 665 mmHg 13%

2 October, Friday

Time Temperature Precipitation Wind Pressure Humidity
00:00 +20°C° 0 mm 5 mps 665 mmHg 14%
01:00 +19°C° 0 mm 4 mps 665 mmHg 16%
02:00 +18°C° 0 mm 3 mps 665 mmHg 18%
03:00 +18°C° 0 mm 3 mps 665 mmHg 19%
04:00 +17°C° 0 mm 3 mps 665 mmHg 20%
05:00 +17°C° 0 mm 3 mps 665 mmHg 21%
06:00 +18°C° 0 mm 3 mps 666 mmHg 20%
07:00 +19°C° 0 mm 4 mps 667 mmHg 20%
08:00 +20°C° 0 mm 4 mps 668 mmHg 19%
09:00 +20°C° 0 mm 5 mps 668 mmHg 33%
10:00 +21°C° 0 mm 6 mps 668 mmHg 47%
11:00 +21°C° 0 mm 6 mps 667 mmHg 62%
12:00 +22°C° 0 mm 6 mps 667 mmHg 56%
13:00 +23°C° 0 mm 7 mps 667 mmHg 51%
14:00 +26°C° 0 mm 7 mps 667 mmHg 45%
15:00 +24°C° 0 mm 7 mps 667 mmHg 47%
16:00 +22°C° 0 mm 8 mps 667 mmHg 50%
17:00 +21°C° 0 mm 8 mps 667 mmHg 52%
18:00 +18°C° 0 mm 8 mps 667 mmHg 59%
19:00 +16°C° 0 mm 9 mps 667 mmHg 67%
20:00 +12°C° 0 mm 9 mps 668 mmHg 74%
21:00 +12°C° 0 mm 9 mps 668 mmHg 74%
22:00 +12°C° 0 mm 9 mps 668 mmHg 75%
23:00 +12°C° 0 mm 9 mps 669 mmHg 75%

3 October, Saturday

Time Temperature Precipitation Wind Pressure Humidity
00:00 +11°C° 0 mm 9 mps 669 mmHg 75%
01:00 +11°C° 0 mm 8 mps 669 mmHg 76%
02:00 +10°C° 0 mm 8 mps 669 mmHg 76%
03:00 +10°C° 0 mm 8 mps 669 mmHg 76%
04:00 +10°C° 0 mm 8 mps 669 mmHg 76%
05:00 +10°C° 0 mm 8 mps 669 mmHg 76%
06:00 +10°C° 0 mm 8 mps 670 mmHg 75%
07:00 +10°C° 0 mm 8 mps 670 mmHg 73%
08:00 +11°C° 0 mm 8 mps 671 mmHg 72%
09:00 +12°C° 0 mm 8 mps 671 mmHg 67%
10:00 +13°C° 0 mm 9 mps 671 mmHg 61%
11:00 +15°C° 0 mm 9 mps 672 mmHg 56%
12:00 +16°C° 0 mm 9 mps 671 mmHg 55%
13:00 +16°C° 0 mm 8 mps 671 mmHg 54%
14:00 +16°C° 0 mm 8 mps 670 mmHg 53%
15:00 +16°C° 0 mm 8 mps 670 mmHg 55%
16:00 +15°C° 0 mm 8 mps 670 mmHg 57%
17:00 +15°C° 0 mm 8 mps 670 mmHg 59%
18:00 +13°C° 0 mm 8 mps 670 mmHg 62%
19:00 +12°C° 0 mm 7 mps 671 mmHg 65%
20:00 +11°C° 0 mm 7 mps 671 mmHg 68%
21:00 +11°C° 0 mm 7 mps 671 mmHg 69%
22:00 +11°C° 0 mm 7 mps 671 mmHg 71%
23:00 +10°C° 0 mm 7 mps 672 mmHg 72%
Show more